Greensboro, NC

8:45 PM EDT on May 23, 2018 (GMT -0400)
Piedmont Triad International

Weather History for KGSO - November, 2010

Change the Weather History Date:

Saturday, November 6, 2010

  Actual Average Record
Temperature  
Mean Temperature 44 °F 53 °F  
Max Temperature 53 °F 64 °F 80 °F (1975)
Min Temperature 35 °F 42 °F 25 °F (1949)
Degree Days  
Heating Degree Days 21 12  
Month to date heating degree days 100 67  
Since 1 July heating degree days 227 300  
Cooling Degree Days 0 0  
Month to date cooling degree days 0 0  
Year to date cooling degree days 2013 1480  
Moisture  
Dew Point 26 °F    
Average Humidity 57    
Maximum Humidity 85    
Minimum Humidity 28    
Precipitation  
Precipitation 0.00 in 0.10 in 1.98 in (1963)
Month to date precipitation 0.54 0.65  
Year to date precipitation 40.25 36.76  
Snow  
Snow 0.00 in - - ()
Month to date snowfall 0.0  
Snow Depth 0.00 in    
Sea Level Pressure  
Sea Level Pressure 30.17 in    
Wind  
Wind Speed 5 mph (North)    
Max Wind Speed 14 mph    
Max Gust Speed 17 mph    
Visibility 10 miles    
Events      
T = Trace of Precipitation, MM = Missing Value Source: NWS Daily Summary

Daily Weather History Graph

Daily Weather History Graph

Search for Another Location

Airport or City:

Astronomy

Nov. 06, 2010 Rise Set
Actual Time 7:47 AM EDT 6:18 PM EDT
Civil Twilight 7:20 AM EDT 6:45 PM EDT
Nautical Twilight 6:49 AM EDT 7:16 PM EDT
Astronomical Twilight 6:19 AM EDT 7:46 PM EDT
Moon 8:19 AM EDT (11/6) 6:29 PM EDT (11/6)
Length of Visible Light 11h 25m
Length of Day
10h 31m
New Moon, 0% of the Moon is Illuminated
Nov 6
New Moon
Nov 13
First Quarter
Nov 21
Full
Nov 28
Last Quarter
Dec 5
New

Hourly Weather History & Observations

Time (EDT) Temp. Windchill Dew Point Humidity Pressure Visibility Wind Dir Wind Speed Gust Speed Precip Events Conditions
12:54 AM 39.9 °F 37.8 °F 35.1 °F 83% 29.98 in 10.0 mi NW 3.5 mph - N/A   Mostly Cloudy
1:54 AM 39.9 °F - 35.1 °F 83% 29.99 in 10.0 mi Calm Calm - N/A   Mostly Cloudy
2:54 AM 39.9 °F - 34.0 °F 79% 29.99 in 10.0 mi Calm Calm - N/A   Mostly Cloudy
3:54 AM 39.9 °F - 30.9 °F 70% 30.01 in 10.0 mi Calm Calm - N/A   Overcast
4:54 AM 39.9 °F 37.8 °F 28.0 °F 63% 30.03 in 10.0 mi Variable 3.5 mph - N/A   Mostly Cloudy
5:54 AM 39.9 °F 37.8 °F 28.0 °F 63% 30.05 in 10.0 mi North 3.5 mph - N/A   Mostly Cloudy
6:54 AM 39.9 °F 36.7 °F 27.0 °F 60% 30.08 in 10.0 mi North 4.6 mph - N/A   Mostly Cloudy
7:54 AM 39.0 °F 35.7 °F 27.0 °F 62% 30.11 in 10.0 mi North 4.6 mph - N/A   Scattered Clouds
8:54 AM 39.9 °F 35.8 °F 27.0 °F 60% 30.14 in 10.0 mi North 5.8 mph - N/A   Overcast
9:54 AM 41.0 °F 35.8 °F 26.1 °F 55% 30.18 in 10.0 mi North 8.1 mph - N/A   Overcast
10:54 AM 43.0 °F 39.5 °F 27.0 °F 53% 30.19 in 10.0 mi NNE 5.8 mph - N/A   Mostly Cloudy
11:54 AM 46.9 °F - 26.1 °F 44% 30.20 in 10.0 mi NNE 5.8 mph - N/A   Scattered Clouds
12:54 PM 48.9 °F - 26.1 °F 41% 30.20 in 10.0 mi NE 8.1 mph - N/A   Scattered Clouds
1:54 PM 52.0 °F - 25.0 °F 35% 30.19 in 10.0 mi North 6.9 mph - N/A   Scattered Clouds
2:54 PM 51.1 °F - 21.9 °F 32% 30.18 in 10.0 mi Calm Calm - N/A   Mostly Cloudy
3:54 PM 52.0 °F - 19.9 °F 28% 30.18 in 10.0 mi Variable 5.8 mph 16.1 mph N/A   Mostly Cloudy
4:54 PM 48.9 °F - 19.9 °F 32% 30.21 in 10.0 mi NW 8.1 mph - N/A   Mostly Cloudy
5:54 PM 48.9 °F - 23.0 °F 36% 30.24 in 10.0 mi NW 5.8 mph - N/A   Mostly Cloudy
6:54 PM 46.0 °F 40.2 °F 23.0 °F 40% 30.27 in 10.0 mi NW 12.7 mph 17.3 mph N/A   Partly Cloudy
7:54 PM 43.0 °F 40.3 °F 21.9 °F 43% 30.31 in 10.0 mi NNW 4.6 mph - N/A   Clear
8:54 PM 42.1 °F 38.4 °F 21.9 °F 45% 30.34 in 10.0 mi North 5.8 mph - N/A   Clear
9:54 PM 39.9 °F 37.8 °F 23.0 °F 51% 30.36 in 10.0 mi North 3.5 mph - N/A   Clear
10:54 PM 37.9 °F - 23.0 °F 55% 30.37 in 10.0 mi Calm Calm - N/A   Clear
11:54 PM 36.0 °F 31.1 °F 24.1 °F 62% 30.38 in 10.0 mi NNW 5.8 mph - N/A   Clear